Wind_Speed
24 24 23 23 23 23 22 21 20 19 19 19 19 17 16 14 13 13 12 11 10 9 8 8 8 8 8 8 9 9 9 9 8 8 9 9 9 8 8 8 8 8 8 9
24 24 23 24 24 24 24 22 21 20 20 20 20 18 16 15 14 14 13 11 10 9 7 7 8 8 8 9 9 9 10 9 9 8 9 9 10 9 9 9 8 8 9 9
23 23 24 25 25 25 25 23 22 21 21 21 20 19 18 16 14 13 13 12 11 9 8 7 8 9 9 9 9 9 10 9 9 9 9 9 9 10 9 9 8 9 9 10
23 24 25 25 25 25 24 24 23 23 22 22 22 21 19 18 16 14 13 13 11 10 9 9 9 9 9 10 10 10 10 10 9 9 9 8 9 9 9 8 8 8 9 10
23 24 25 25 24 24 24 24 25 24 24 24 23 23 19 19 17 15 14 14 12 11 11 10 10 11 10 11 11 11 11 10 9 9 9 9 9 9 9 8 8 9 10 11
25 25 25 24 24 25 25 25 26 26 26 25 23 24 20 18 18 16 15 15 14 13 12 11 12 12 11 11 11 11 11 11 10 9 9 9 9 9 10 10 10 10 11 12
25 25 24 24 24 25 26 26 26 26 27 26 23 24 21 19 18 17 16 16 15 14 13 13 12 12 12 12 13 13 13 12 11 10 9 9 10 10 10 11 11 12 12 13
25 25 24 24 24 25 26 27 28 28 27 25 24 23 21 20 19 19 18 17 16 15 15 14 13 13 13 13 14 14 14 13 12 11 11 11 11 11 12 12 12 13 13 14
25 25 24 24 24 24 25 26 26 27 27 27 26 24 21 20 20 20 20 19 18 17 16 15 14 14 14 14 14 14 13 12 12 12 12 12 12 12 13 13 13 13 14 15
26 26 25 25 25 26 26 25 26 27 28 28 27 25 22 20 21 21 20 20 20 19 18 17 15 15 15 14 13 13 12 12 12 12 12 12 13 13 13 14 14 14 16 16
27 27 26 27 27 27 27 27 27 28 28 28 27 25 22 21 21 21 21 20 20 19 18 17 16 16 15 15 14 13 13 12 12 12 12 13 14 14 15 15 15 16 16 17
27 27 27 27 27 27 28 28 28 29 29 29 28 25 22 22 21 21 21 21 21 19 18 16 16 16 16 15 14 14 14 13 13 14 14 14 14 15 16 15 16 16 17 17
27 28 27 27 27 28 28 28 28 29 29 29 29 26 23 22 21 21 21 21 21 19 17 17 16 16 16 16 16 15 15 15 14 15 15 15 15 16 16 17 17 17 17 18
26 27 27 26 26 27 28 28 28 29 29 29 27 25 23 23 22 21 21 22 21 20 19 18 18 17 17 17 17 17 16 16 16 16 16 16 16 17 17 17 17 17 18 18
27 28 27 26 26 27 28 28 28 28 29 29 27 26 24 23 23 22 22 22 21 20 20 19 19 18 18 17 17 18 17 17 16 17 17 17 17 17 18 18 18 18 18 18
25 26 27 26 26 27 27 28 28 29 29 28 27 25 24 24 25 24 23 23 22 21 21 21 21 19 18 18 17 18 18 17 17 17 18 18 18 18 19 19 18 18 19 18
25 25 26 26 25 26 26 26 28 29 29 28 27 25 25 26 26 25 24 24 23 22 22 22 21 21 19 18 18 18 17 18 19 19 19 19 19 19 19 18 18 18 18 18
26 25 26 26 26 26 24 25 26 28 28 27 27 26 26 26 26 26 26 25 24 23 23 23 23 22 21 20 19 18 19 18 19 19 20 20 20 20 19 19 19 19 19 18
26 26 26 26 27 27 26 26 27 27 27 27 26 26 25 27 27 26 26 26 26 24 23 24 24 23 22 21 20 20 21 21 20 20 21 21 21 20 20 19 19 19 19 19
26 26 26 27 27 28 27 27 28 28 27 27 27 26 26 27 28 26 26 26 26 24 24 24 24 24 23 23 22 22 22 22 22 22 21 21 21 21 20 19 19 20 20 19
25 26 27 28 28 28 27 27 27 28 27 26 27 27 27 27 28 27 26 25 25 25 24 24 25 24 24 24 24 23 22 21 22 22 21 20 20 21 21 20 21 21 20 19
23 24 25 27 29 28 28 27 28 28 26 26 26 27 26 27 28 28 27 25 24 24 24 24 24 23 23 23 24 23 22 22 21 20 20 20 20 21 22 21 22 22 21 21
23 23 24 26 27 28 28 28 28 27 26 25 25 26 25 26 27 27 27 26 25 25 25 25 25 25 24 24 24 24 22 22 21 20 21 21 21 21 21 22 22 22 22 22
22 22 22 23 25 26 27 27 28 27 26 25 25 25 25 25 26 27 26 27 26 26 26 26 25 24 25 24 25 25 24 23 22 21 22 22 22 22 22 21 21 22 23 23
23 24 23 22 23 25 25 26 26 26 25 25 25 25 25 26 26 27 27 27 27 26 26 26 26 26 25 25 25 24 24 24 23 23 23 24 23 23 23 22 22 23 23 23
24 24 24 22 23 25 25 25 26 25 25 26 26 25 25 25 25 25 25 26 27 26 26 25 24 25 25 25 25 25 26 24 24 24 24 24 24 23 23 23 23 23 23 24
Wind_Direction
235 235 236 238 240 240 241 242 243 244 247 251 256 259 259 261 266 272 274 274 277 277 280 286 289 297 301 308 306 309 314 318 321 328 332 335 333 327 329 331 331 331 332 335
235 236 236 236 238 240 241 242 244 246 248 250 255 256 255 256 260 265 267 267 271 270 271 282 287 288 292 301 300 300 304 308 311 316 321 321 326 325 323 325 327 329 329 331
237 237 236 237 239 240 241 243 245 247 248 250 253 251 250 254 257 261 262 263 264 263 265 278 289 289 290 292 291 292 299 303 306 310 312 313 316 319 318 318 322 325 327 328
237 238 238 239 240 241 242 244 246 247 246 246 249 248 247 253 253 260 260 261 262 262 267 273 278 279 284 289 289 289 293 294 298 303 306 311 314 314 313 314 319 321 325 327
238 240 241 241 242 242 242 243 245 245 245 246 248 250 247 251 257 260 254 256 259 261 268 269 274 273 276 283 285 287 289 285 286 291 297 302 305 304 305 309 315 321 325 325
238 239 240 239 239 240 241 242 244 244 246 248 249 252 251 253 256 254 252 254 256 258 259 264 268 268 269 275 276 281 285 280 279 282 290 295 299 299 300 303 309 314 317 318
236 238 238 237 236 238 239 241 243 244 246 249 248 250 253 254 254 250 250 253 256 257 257 261 265 263 263 270 275 278 281 280 278 277 279 286 291 294 298 301 305 308 310 312
236 236 237 237 237 239 240 241 242 246 249 252 250 251 253 253 251 249 250 251 254 257 260 261 263 265 266 268 269 272 275 276 274 274 275 280 287 292 296 299 299 301 303 305
238 236 236 236 236 239 240 241 243 246 249 251 252 253 253 252 248 249 250 251 253 257 261 262 262 265 269 268 268 270 267 269 270 272 276 279 285 289 294 297 295 298 300 300
239 238 235 235 236 237 239 240 242 245 249 251 252 253 254 252 248 248 250 254 256 259 262 263 267 269 268 266 267 269 268 269 271 277 281 279 283 287 294 297 297 298 299 299
240 240 237 236 236 237 238 239 241 244 248 251 253 252 254 253 250 249 249 253 257 261 262 262 266 267 266 265 265 265 269 270 272 275 278 281 286 290 296 296 295 296 298 299
242 241 239 238 237 238 239 241 243 245 247 250 254 253 252 253 251 251 251 252 255 259 258 260 264 263 265 265 261 262 267 271 276 274 273 279 285 291 295 298 298 297 298 298
243 242 240 239 238 238 239 241 243 246 248 250 252 253 251 252 252 252 251 252 254 256 254 257 260 259 263 263 258 257 262 267 272 275 273 277 283 288 293 296 297 297 299 299
245 243 241 241 240 240 240 241 242 244 246 249 251 252 250 253 253 253 253 254 255 256 256 257 258 260 264 263 257 255 261 265 268 273 275 280 284 288 291 294 297 300 301 300
247 246 242 239 237 238 239 240 241 243 246 248 249 250 250 251 252 252 251 253 256 258 258 258 258 260 263 266 265 261 263 264 266 270 275 281 283 286 290 294 296 299 301 300
249 248 245 241 238 239 240 240 240 242 245 247 248 249 248 249 250 252 252 253 255 257 257 259 259 261 264 268 267 265 267 265 266 268 272 278 282 286 289 293 296 298 298 298
248 248 246 244 241 241 241 240 241 242 245 247 248 248 247 248 249 251 251 252 255 256 256 257 261 264 265 263 264 264 269 267 266 268 270 273 278 283 287 289 293 296 298 298
245 245 245 243 241 243 243 242 243 244 245 247 247 247 248 248 249 250 250 250 252 254 256 258 261 264 263 262 262 265 266 267 265 267 269 271 274 280 284 286 289 292 294 295
243 244 245 243 242 244 244 245 245 247 246 246 249 250 250 249 249 249 251 252 253 256 257 258 260 262 262 262 265 264 264 266 266 266 267 269 272 277 281 284 287 289 290 292
243 245 245 247 246 247 247 247 247 249 248 246 248 249 249 248 248 249 252 254 253 256 259 258 259 260 259 261 262 263 263 264 266 269 266 267 270 275 279 282 284 286 288 289
244 246 248 250 250 250 249 248 248 249 250 247 247 248 248 248 247 248 250 252 251 255 258 257 257 258 259 260 263 262 263 264 266 265 265 270 273 276 278 281 282 284 284 286
246 249 251 253 253 252 250 250 249 251 251 251 250 249 248 247 245 247 248 251 252 254 254 256 258 259 260 263 264 262 264 264 266 268 268 272 276 276 277 280 282 281 282 285
247 251 254 255 254 253 251 250 250 250 251 251 250 247 247 246 244 245 248 250 250 253 253 255 258 259 261 263 263 262 266 268 267 269 272 273 275 277 277 279 282 282 283 284
248 250 255 256 254 252 250 250 249 249 250 250 249 248 246 244 244 247 250 251 252 254 254 256 259 260 260 261 264 265 269 269 267 269 272 274 275 276 277 279 281 283 284 284
249 250 253 254 254 252 251 248 247 246 247 248 248 249 248 247 248 249 249 250 251 253 256 259 260 261 263 265 268 270 270 267 267 268 271 273 275 275 277 280 283 285 285 284
250 251 253 251 251 252 250 250 249 247 245 245 246 246 246 248 249 249 249 249 250 255 257 258 260 262 263 266 268 270 269 268 267 267 269 271 273 276 278 281 283 286 287 286
Height
5853 5856 5858 5861 5862 5864 5866 5868 5869 5870 5871 5872 5872 5873 5874 5874 5875 5875 5876 5876 5876 5876 5876 5877 5877 5877 5877 5877 5877 5876 5875 5874 5873 5872 5871 5870 5869 5868 5867 5865 5864 5863 5861 5860
5849 5851 5854 5855 5857 5859 5861 5863 5865 5867 5867 5868 5869 5870 5871 5871 5872 5872 5872 5873 5874 5874 5874 5874 5875 5875 5875 5875 5874 5874 5873 5873 5872 5871 5870 5869 5868 5867 5866 5864 5863 5862 5860 5859
5844 5848 5849 5851 5853 5855 5857 5860 5861 5862 5863 5863 5865 5866 5867 5868 5869 5870 5870 5871 5871 5871 5872 5872 5872 5872 5872 5872 5872 5871 5871 5870 5870 5869 5868 5867 5866 5865 5864 5863 5862 5860 5859 5857
5839 5841 5844 5846 5848 5851 5853 5855 5856 5857 5858 5859 5861 5862 5864 5865 5866 5867 5868 5868 5868 5869 5869 5869 5869 5870 5870 5870 5869 5869 5868 5868 5867 5867 5866 5865 5864 5864 5863 5861 5860 5859 5857 5856
5835 5837 5839 5841 5844 5846 5848 5850 5851 5852 5853 5855 5856 5857 5861 5861 5862 5863 5864 5865 5865 5866 5866 5866 5867 5867 5867 5867 5866 5866 5866 5866 5865 5865 5864 5863 5862 5861 5861 5860 5858 5857 5855 5854
5830 5832 5834 5837 5839 5841 5843 5845 5846 5847 5848 5850 5853 5853 5856 5857 5858 5859 5860 5861 5861 5862 5863 5863 5864 5863 5863 5863 5863 5863 5863 5862 5862 5862 5862 5861 5860 5859 5858 5857 5856 5855 5853 5852
5825 5827 5829 5831 5833 5835 5837 5840 5841 5842 5843 5845 5848 5848 5851 5853 5854 5856 5857 5857 5858 5858 5859 5860 5860 5860 5860 5860 5860 5860 5860 5859 5859 5859 5859 5859 5858 5857 5856 5855 5854 5853 5851 5850
5819 5822 5824 5826 5828 5830 5832 5834 5836 5838 5839 5841 5842 5843 5847 5849 5850 5852 5853 5853 5854 5855 5855 5856 5856 5856 5856 5856 5856 5856 5856 5856 5856 5856 5856 5856 5855 5855 5853 5852 5851 5850 5848 5847
5813 5816 5819 5821 5823 5825 5827 5828 5831 5833 5834 5835 5837 5840 5842 5844 5846 5847 5849 5849 5850 5851 5851 5851 5851 5852 5852 5852 5852 5852 5852 5852 5853 5852 5852 5852 5852 5851 5850 5849 5848 5846 5845 5844
5807 5810 5813 5815 5817 5819 5822 5824 5825 5827 5828 5829 5832 5834 5838 5840 5841 5843 5845 5845 5846 5847 5847 5846 5847 5848 5848 5849 5849 5849 5849 5849 5849 5849 5848 5848 5848 5847 5847 5846 5844 5842 5841 5840
5801 5804 5807 5808 5810 5813 5815 5817 5819 5821 5823 5824 5826 5831 5833 5835 5837 5838 5840 5841 5842 5842 5843 5843 5844 5844 5844 5844 5844 5845 5845 5845 5845 5846 5845 5845 5845 5844 5843 5841 5840 5838 5837 5835
5794 5797 5799 5802 5804 5806 5809 5811 5813 5816 5817 5819 5821 5827 5827 5829 5831 5833 5834 5836 5837 5837 5838 5839 5839 5839 5840 5840 5840 5841 5841 5841 5841 5841 5842 5841 5841 5840 5839 5837 5836 5834 5833 5831
5787 5790 5793 5795 5799 5801 5802 5804 5807 5810 5812 5813 5816 5822 5822 5824 5825 5827 5829 5830 5831 5832 5833 5834 5834 5834 5834 5835 5835 5836 5837 5838 5838 5838 5838 5838 5837 5836 5835 5833 5832 5830 5828 5827
5781 5784 5787 5790 5792 5794 5796 5799 5801 5803 5805 5807 5810 5814 5817 5818 5820 5822 5823 5824 5825 5827 5828 5829 5829 5830 5830 5830 5831 5831 5832 5833 5834 5834 5834 5834 5833 5832 5831 5829 5828 5826 5824 5823
5774 5777 5780 5782 5785 5787 5790 5792 5795 5797 5799 5802 5805 5807 5810 5812 5814 5816 5818 5819 5820 5821 5823 5823 5824 5825 5825 5825 5826 5827 5828 5828 5829 5829 5830 5829 5829 5828 5826 5825 5824 5822 5820 5818
5768 5770 5773 5776 5778 5780 5783 5786 5788 5790 5793 5795 5798 5801 5804 5806 5808 5810 5812 5813 5815 5816 5817 5818 5818 5819 5819 5820 5821 5822 5822 5823 5824 5825 5825 5825 5824 5823 5822 5821 5820 5818 5816 5815
5762 5764 5767 5770 5772 5774 5777 5780 5782 5784 5786 5789 5792 5795 5797 5799 5801 5804 5806 5807 5809 5810 5812 5812 5813 5814 5814 5814 5815 5816 5817 5818 5819 5820 5820 5820 5820 5819 5818 5816 5815 5813 5812 5810
5756 5758 5760 5763 5766 5768 5774 5774 5776 5778 5780 5783 5785 5788 5790 5792 5795 5797 5799 5801 5803 5804 5806 5807 5808 5808 5808 5809 5809 5811 5812 5813 5813 5814 5814 5814 5814 5814 5813 5811 5810 5809 5807 5806
5750 5752 5754 5756 5758 5762 5766 5768 5769 5771 5774 5777 5779 5781 5783 5785 5788 5790 5792 5794 5796 5798 5799 5801 5801 5803 5803 5804 5804 5805 5806 5807 5807 5807 5808 5808 5808 5808 5807 5806 5805 5804 5803 5802
5744 5746 5749 5750 5752 5755 5760 5761 5762 5766 5767 5770 5772 5774 5776 5779 5781 5785 5786 5787 5789 5791 5793 5794 5795 5796 5797 5798 5799 5799 5800 5801 5801 5801 5801 5802 5802 5802 5802 5801 5800 5799 5798 5797
5738 5740 5742 5744 5746 5749 5752 5754 5756 5759 5762 5763 5764 5767 5769 5772 5775 5778 5779 5780 5782 5784 5786 5787 5788 5789 5790 5792 5792 5793 5793 5794 5794 5795 5795 5796 5796 5796 5795 5795 5795 5794 5792 5792
5732 5734 5736 5738 5740 5744 5745 5747 5749 5751 5754 5755 5757 5759 5762 5764 5767 5770 5772 5774 5776 5777 5779 5781 5782 5783 5784 5785 5786 5786 5787 5787 5787 5789 5789 5790 5789 5789 5789 5789 5788 5788 5787 5786
5727 5729 5730 5732 5735 5736 5737 5739 5741 5743 5746 5748 5750 5752 5754 5757 5760 5763 5765 5767 5769 5771 5773 5774 5775 5776 5777 5778 5779 5779 5780 5781 5782 5782 5783 5784 5783 5783 5783 5783 5782 5781 5781 5780
5721 5722 5724 5726 5727 5729 5731 5733 5734 5736 5738 5740 5743 5745 5748 5750 5753 5755 5758 5760 5762 5764 5765 5767 5769 5770 5770 5772 5772 5773 5774 5775 5775 5776 5776 5777 5777 5777 5777 5776 5776 5775 5775 5774
5715 5716 5718 5719 5721 5722 5724 5726 5728 5730 5731 5734 5736 5739 5742 5744 5746 5749 5751 5753 5755 5756 5758 5760 5761 5762 5763 5764 5765 5766 5767 5767 5768 5769 5770 5770 5770 5770 5770 5769 5769 5769 5768 5767
5709 5710 5711 5713 5714 5716 5718 5719 5721 5723 5725 5727 5730 5732 5735 5738 5740 5742 5744 5746 5748 5750 5751 5753 5754 5755 5757 5757 5758 5759 5759 5760 5761 5762 5763 5763 5763 5763 5763 5762 5762 5761 5761 5760